DW6599 Weather Reports


time (UTC)temp
F
wind
direction
speed
knots
gust
knots
rain 1hr
in
rain 24hr
in
rain mn
in
humidity
%
barometer
mb
20260506135359 53 20 12.2 20.9 0.00 0.00 0.00 69 1015.8
20260506134859 53 20 12.2 20.9 0.00 0.00 0.00 69 1015.6
20260506134359 53 40 12.2 12.2 0.00 0.00 0.00 71 1015.5
20260506133859 53 40 12.2 12.2 0.00 0.00 0.00 69 1015.3
20260506133359 53 40 12.2 12.2 0.00 0.00 0.00 69 1015.2
20260506132358 53 20 10.4 10.4 0.00 0.00 0.00 71 1014.9
20260506131359 52 20 10.4 10.4 0.00 0.00 0.00 71 1014.6
20260506130859 52 20 10.4 10.4 0.00 0.00 0.00 71 1014.4
20260506130359 52 20 10.4 20.9 0.00 0.00 0.00 72 1014.5
20260506125359 52 30 11.3 20.9 0.00 0.00 0.00 72 1014.6
20260506124859 52 30 11.3 20.9 0.00 0.00 0.00 72 1014.7
20260506124359 52 20 11.3 20.0 0.00 0.00 0.00 72 1014.7
20260506123859 52 20 11.3 20.0 0.00 0.00 0.00 72 1014.5
20260506122859 52 20 11.3 20.0 0.00 0.00 0.00 73 1014.2
20260506122359 52 20 11.3 20.0 0.00 0.00 0.00 73 1014.1
20260506121859 52 20 11.3 20.0 0.00 0.00 0.00 73 1014.1
20260506121359 52 20 11.3 20.0 0.00 0.00 0.00 74 1014.0
20260506120359 51 20 11.3 20.0 0.00 0.00 0.00 74 1014.1
20260506115859 51 20 10.4 18.2 0.00 0.00 0.00 74 1014.2
20260506114900 51 20 10.4 18.2 0.00 0.00 0.00 74 1014.1
20260506113859 51 350 8.7 17.4 0.00 0.00 0.00 75 1013.8
20260506113400 51 350 8.7 20.0 0.00 0.00 0.00 74 1014.2
20260506112859 51 10 10.4 20.0 0.00 0.00 0.00 75 1014.3
20260506112359 51 10 10.4 20.0 0.00 0.00 0.00 75 1014.1
20260506111859 51 10 10.4 20.0 0.00 0.00 0.00 75 1013.9
20260506111359 51 10 10.4 20.0 0.00 0.00 0.00 75 1013.8
20260506110859 51 10 10.4 20.0 0.00 0.00 0.00 75 1013.2
20260506110359 51 10 10.4 20.0 0.00 0.00 0.00 75 1013.7
20260506105859 51 10 10.4 18.2 0.00 0.00 0.00 75 1013.3
20260506105400 51 10 10.4 18.2 0.00 0.00 0.00 76 1013.8
20260506104859 51 10 10.4 18.2 0.00 0.00 0.00 76 1013.6
20260506104359 51 10 7.0 7.0 0.00 0.00 0.00 76 1013.2
20260506103359 51 10 7.0 7.8 0.00 0.00 0.00 78 1013.4
20260506102859 51 0 7.8 7.8 0.00 0.00 0.00 78 1013.2
20260506102400 51 0 7.8 7.8 0.00 0.00 0.00 78 1013.2
20260506101859 51 0 7.8 7.8 0.00 0.00 0.00 79 1013.0
20260506100859 51 0 7.8 7.8 0.00 0.00 0.00 79 1013.0
20260506100359 51 0 7.8 8.7 0.00 0.00 0.00 79 1012.9
20260506095859 51 10 8.7 8.7 0.00 0.00 0.00 79 1012.9
20260506095359 51 10 8.7 8.7 0.00 0.00 0.00 79 1013.0
20260506094859 51 10 8.7 17.4 0.00 0.00 0.00 79 1013.0
20260506094359 51 10 10.4 17.4 0.00 0.00 0.00 79 1012.9
20260506093900 51 10 10.4 17.4 0.00 0.00 0.00 79 1012.8
20260506093359 51 10 10.4 17.4 0.00 0.00 0.00 79 1012.6
20260506092900 51 10 8.7 8.7 0.00 0.00 0.00 79 1012.6
20260506092359 51 10 8.7 8.7 0.00 0.00 0.00 79 1012.5
20260506091859 51 10 8.7 8.7 0.00 0.00 0.00 79 1012.4
20260506091359 51 10 8.7 8.7 0.00 0.00 0.00 79 1012.3
20260506090859 51 10 8.7 8.7 0.00 0.00 0.00 79 1012.3
20260506090359 51 10 8.7 8.7 0.00 0.00 0.00 79 1012.3
20260506085859 51 30 8.7 8.7 0.00 0.00 0.00 79 1012.1
20260506085400 51 30 8.7 8.7 0.00 0.00 0.00 79 1012.2
20260506084859 51 30 8.7 20.9 0.00 0.00 0.00 79 1012.1
20260506083859 51 30 12.2 20.9 0.00 0.00 0.00 79 1011.6
20260506083359 51 30 12.2 20.9 0.00 0.00 0.00 78 1011.8
20260506082359 51 20 10.4 17.4 0.00 0.00 0.00 78 1011.9
20260506081859 51 20 10.4 17.4 0.00 0.00 0.00 78 1011.8
20260506081359 51 20 10.4 17.4 0.00 0.00 0.00 78 1011.5
20260506080359 52 20 10.4 17.4 0.00 0.00 0.00 76 1011.6
20260506073400 52 20 7.0 7.8 0.00 0.00 0.00 75 1011.6
20260506072859 52 10 7.8 7.8 0.00 0.00 0.00 75 1011.7
20260506072400 52 10 7.8 7.8 0.00 0.00 0.00 75 1011.4
20260506071859 52 10 7.8 7.8 0.00 0.00 0.00 75 1011.7
20260506071359 52 10 7.8 7.8 0.00 0.00 0.00 75 1011.5
20260506070900 52 10 7.8 7.8 0.00 0.00 0.00 75 1011.1
20260506070359 52 10 7.8 8.7 0.00 0.00 0.00 75 1010.9
20260506062359 52 30 10.4 18.2 0.00 0.00 0.00 73 1010.9
20260506061859 53 30 10.4 18.2 0.00 0.00 0.00 73 1010.9
20260506061359 53 30 10.4 18.2 0.00 0.00 0.00 73 1011.1
20260506060900 53 30 10.4 18.2 0.00 0.00 0.00 72 1011.2
20260506060400 53 30 10.4 18.2 0.00 0.00 0.00 73 1011.1
20260506051359 54 10 7.8 7.8 0.00 0.00 0.00 73 1011.2
20260506050859 54 10 7.8 7.8 0.00 0.00 0.00 72 1011.2
20260506050400 54 10 7.8 20.0 0.00 0.00 0.00 73 1011.2
20260506044900 54 10 8.7 20.0 0.00 0.00 0.00 73 1011.2
20260506044359 54 10 8.7 8.7 0.00 0.00 0.00 73 1011.2
20260506043859 54 10 8.7 8.7 0.00 0.00 0.00 73 1011.1
20260506043400 54 10 8.7 8.7 0.00 0.00 0.00 73 1011.0
20260506042900 54 10 8.7 8.7 0.00 0.00 0.00 73 1011.0
20260506042359 54 10 8.7 8.7 0.00 0.00 0.00 73 1011.0
20260506041900 54 10 8.7 8.7 0.00 0.00 0.00 73 1011.2
20260506040859 54 10 8.7 8.7 0.00 0.00 0.00 74 1011.2
20260506040359 54 10 8.7 8.7 0.00 0.00 0.00 74 1011.1
20260506035900 54 20 8.7 8.7 0.00 0.00 0.00 74 1011.2
20260506035359 54 20 8.7 8.7 0.00 0.00 0.00 74 1011.2
20260506034900 54 20 8.7 20.9 0.00 0.00 0.00 74 1011.2
20260506034400 54 20 12.2 20.9 0.00 0.00 0.00 74 1011.1
20260506033859 54 20 12.2 20.9 0.00 0.00 0.00 75 1011.0
20260506033359 54 20 12.2 20.9 0.00 0.00 0.00 75 1010.9
20260506032900 54 10 12.2 18.2 0.00 0.00 0.00 75 1010.9
20260506032400 54 10 12.2 18.2 0.00 0.00 0.00 75 1010.6
20260506031900 55 10 12.2 18.2 0.00 0.00 0.00 75 1010.3
20260506031359 55 10 12.2 18.2 0.00 0.00 0.00 75 1010.1
20260506030900 55 10 12.2 18.2 0.00 0.00 0.00 75 1010.1
20260506030400 55 10 12.2 18.2 0.00 0.00 0.00 74 1009.8
20260506025900 55 0 11.3 11.3 0.00 0.00 0.00 74 1009.6
20260506025400 55 0 11.3 11.3 0.00 0.00 0.00 74 1009.5
20260506024900 55 0 11.3 11.3 0.00 0.00 0.00 74 1009.3
20260506024400 55 10 8.7 8.7 0.00 0.00 0.00 74 1009.3
20260506023900 56 10 8.7 8.7 0.00 0.00 0.00 75 1009.3
20260506022359 57 0 10.4 18.2 0.00 0.00 0.00 79 1009.1
20260506021859 57 0 10.4 18.2 0.00 0.00 0.00 79 1008.8
20260506021400 57 0 10.4 18.2 0.00 0.00 0.00 79 1008.7
20260506020900 57 0 10.4 18.2 0.00 0.00 0.00 79 1008.6
20260506015900 57 0 8.7 15.6 0.00 0.00 0.00 79 1008.3
20260506014859 57 0 8.7 15.6 0.00 0.00 0.00 79 1008.0
20260506014400 57 10 8.7 8.7 0.00 0.00 0.00 79 1008.0
20260506013900 57 10 8.7 8.7 0.00 0.00 0.00 79 1008.0
20260506013400 57 10 8.7 15.6 0.00 0.00 0.00 79 1008.1
20260506012900 57 10 8.7 15.6 0.00 0.00 0.00 79 1007.8
20260506012400 58 10 8.7 15.6 0.00 0.00 0.00 78 1007.7
20260506011900 58 10 8.7 15.6 0.00 0.00 0.00 78 1007.7
20260506011400 58 10 8.7 15.6 0.00 0.00 0.00 78 1007.7
20260506010900 58 10 8.7 15.6 0.00 0.00 0.00 78 1007.9
20260506010359 58 10 8.7 18.2 0.00 0.00 0.00 78 1007.6
20260506005859 58 0 7.8 18.2 0.00 0.00 0.00 78 1007.4
20260506005400 58 0 7.8 18.2 0.00 0.00 0.00 78 1007.5
20260506004900 59 0 7.8 18.2 0.00 0.00 0.00 76 1007.5
20260506004400 59 0 11.3 11.3 0.00 0.00 0.00 76 1007.5
20260506003400 60 0 11.3 17.4 0.00 0.00 0.00 76 1007.3
20260506002859 60 10 7.8 17.4 0.00 0.00 0.00 76 1007.0
20260506002400 60 10 7.8 17.4 0.00 0.00 0.00 75 1007.1
20260506001359 61 10 7.8 17.4 0.00 0.00 0.00 75 1006.9
20260506000900 61 10 7.8 17.4 0.00 0.00 0.00 75 1006.9
20260506000401 65 10 7.8 20.0 0.00 0.00 0.00 69 1006.9
20260505235400 65 350 11.3 20.0 0.00 0.00 0.00 69 1006.8
20260505234859 65 350 11.3 20.0 0.00 0.00 0.00 69 1006.7
20260505234400 65 330 8.7 17.4 0.00 0.00 0.00 69 1006.8
20260505233400 65 330 8.7 18.2 0.00 0.00 0.00 69 1006.8
20260505232900 65 330 11.3 18.2 0.00 0.00 0.00 69 1006.7
20260505232359 65 330 11.3 18.2 0.00 0.00 0.00 69 1006.7
20260505231400 66 330 11.3 18.2 0.00 0.00 0.00 68 1006.7
20260505230900 67 330 11.3 18.2 0.00 0.00 0.00 68 1006.5
20260505230400 67 330 11.3 18.2 0.00 0.00 0.00 68 1006.5
20260505225400 68 320 8.7 17.4 0.00 0.00 0.00 67 1006.3
20260505224901 68 320 8.7 17.4 0.00 0.00 0.00 67 1006.2
20260505224400 69 320 7.0 17.4 0.00 0.00 0.00 67 1006.0
20260505223900 69 320 7.0 17.4 0.00 0.00 0.00 68 1006.0
20260505223400 69 320 7.0 17.4 0.00 0.00 0.00 68 1005.9
20260505222900 69 340 8.7 15.6 0.00 0.00 0.00 68 1005.7
20260505222400 69 340 8.7 15.6 0.00 0.00 0.00 68 1005.5
20260505221900 69 340 8.7 15.6 0.00 0.00 0.00 68 1005.3
20260505221400 69 340 8.7 15.6 0.00 0.00 0.00 68 1005.4
20260505220900 70 340 8.7 15.6 0.00 0.00 0.00 67 1005.5
20260505220400 70 340 8.7 15.6 0.00 0.00 0.00 67 1005.4
20260505215400 71 310 7.0 7.0 0.00 0.00 0.00 66 1005.1
20260505214900 71 310 7.0 7.0 0.00 0.00 0.00 66 1005.0
20260505214400 72 320 7.0 7.0 0.00 0.00 0.00 65 1005.0
20260505213400 73 320 7.0 8.7 0.00 0.00 0.00 65 1004.9
20260505212900 73 320 8.7 8.7 0.00 0.00 0.00 65 1004.8
20260505211400 74 320 8.7 8.7 0.00 0.00 0.00 64 1004.6
20260505210900 74 320 8.7 8.7 0.00 0.00 0.00 64 1004.5
20260505210400 74 320 8.7 17.4 0.00 0.00 0.00 65 1004.6
20260505205900 75 300 7.8 17.4 0.00 0.00 0.00 64 1004.6
20260505204400 75 300 7.8 7.8 0.00 0.00 0.00 65 1004.5
20260505203900 76 300 7.8 7.8 0.00 0.00 0.00 64 1004.4
20260505203400 76 300 7.8 7.8 0.00 0.00 0.00 64 1004.4
20260505202900 76 300 7.0 7.0 0.00 0.00 0.00 63 1004.5
20260505202400 77 300 7.0 7.0 0.00 0.00 0.00 61 1004.4
20260505201900 77 300 7.0 7.0 0.00 0.00 0.00 60 1004.4
20260505201400 78 300 7.0 7.0 0.00 0.00 0.00 58 1004.2
20260505200900 79 300 7.0 7.0 0.00 0.00 0.00 57 1004.2
20260505200400 80 300 7.0 8.7 0.00 0.00 0.00 55 1004.1
20260505195900 80 250 8.7 8.7 0.00 0.00 0.00 52 1004.0
20260505195400 80 250 8.7 8.7 0.00 0.00 0.00 45 1003.9
20260505194901 81 250 8.7 8.7 0.00 0.00 0.00 42 1003.7
20260505194400 81 290 7.8 7.8 0.00 0.00 0.00 41 1003.7
20260505193900 82 290 7.8 7.8 0.00 0.00 0.00 39 1003.7
20260505192900 83 290 8.7 8.7 0.00 0.00 0.00 42 1003.5
20260505192400 83 290 8.7 8.7 0.00 0.00 0.00 41 1003.5
20260505190901 83 290 8.7 8.7 0.00 0.00 0.00 44 1003.5
20260505190400 83 290 8.7 8.7 0.00 0.00 0.00 42 1003.5
20260505185900 83 260 7.0 7.0 0.00 0.00 0.00 44 1003.4
20260505185400 84 260 7.0 7.0 0.00 0.00 0.00 45 1003.1
20260505184900 84 260 7.0 20.0 0.00 0.00 0.00 49 1002.9
20260505184400 84 240 12.2 20.0 0.00 0.00 0.00 52 1003.0
20260505183900 84 240 12.2 20.0 0.00 0.00 0.00 52 1002.9
20260505183400 84 240 12.2 20.0 0.00 0.00 0.00 54 1002.9
20260505182400 83 220 7.0 7.0 0.00 0.00 0.00 55 1003.0
20260505181900 83 220 7.0 7.0 0.00 0.00 0.00 56 1003.1
20260505181401 83 220 7.0 7.0 0.00 0.00 0.00 58 1003.2
20260505180900 82 220 7.0 7.0 0.00 0.00 0.00 60 1003.0
20260505180401 82 220 7.0 8.7 0.00 0.00 0.00 56 1002.9
20260505175900 82 240 8.7 8.7 0.00 0.00 0.00 59 1002.7
20260505174400 81 230 7.0 7.0 0.00 0.00 0.00 61 1002.8
20260505173400 80 230 7.0 7.0 0.00 0.00 0.00 63 1002.9
20260505172900 80 210 5.2 5.2 0.00 0.00 0.00 65 1002.7
20260505171900 80 210 5.2 5.2 0.00 0.00 0.00 65 1002.8
20260505170900 79 210 5.2 5.2 0.00 0.00 0.00 67 1003.0
20260505165901 79 200 6.1 6.1 0.00 0.00 0.00 70 1002.9
20260505165401 75 200 6.1 6.1 0.00 0.00 0.00 66 1003.0
20260505164900 75 200 6.1 7.8 0.00 0.00 0.00 66 1002.5
20260505164401 75 210 7.8 7.8 0.00 0.00 0.00 66 1002.6
20260505163900 75 210 7.8 7.8 0.00 0.00 0.00 66 1002.7
20260505163400 75 210 7.8 8.7 0.00 0.00 0.00 66 1002.6
20260505162901 75 200 8.7 8.7 0.00 0.00 0.00 66 1002.7
20260505162400 75 200 8.7 8.7 0.00 0.00 0.00 66 1002.5
20260505161901 75 200 8.7 8.7 0.00 0.00 0.00 66 1002.5
20260505161401 75 200 8.7 8.7 0.00 0.00 0.00 66 1002.4
20260505160400 75 200 8.7 20.0 0.00 0.00 0.00 66 1002.3
20260505152401 75 200 8.7 8.7 0.00 0.00 0.00 66 1001.9
20260505151900 75 200 8.7 8.7 0.00 0.00 0.00 66 1001.8
20260505150901 75 200 8.7 8.7 0.00 0.00 0.00 66 1001.9
20260505150400 75 200 8.7 8.7 0.00 0.00 0.00 66 1001.9
20260505140401 75 180 7.0 7.8 0.00 0.00 0.00 66 1001.8